Time,TemperatureF,DewpointF,PressureIn,WindDirection,WindDirectionDegrees,WindSpeedMPH,WindSpeedGustMPH,Humidity,HourlyPrecipIn,Conditions,Clouds,dailyrainin,SoftwareType,DateUTC
2013-06-03 00:03:00,59.2,56.6,29.81,SW,228,0.0,25.0,91,0.00,,,0.00,Wunderground v.1.15,2013-06-03 07:03:00,
2013-06-03 00:09:00,59.2,56.6,29.81,SW,228,0.0,25.0,91,0.00,,,0.00,Wunderground v.1.15,2013-06-03 07:09:00,
2013-06-03 00:14:00,59.2,56.9,29.80,SW,228,0.0,25.0,92,0.00,,,0.00,Wunderground v.1.15,2013-06-03 07:14:00,
2013-06-03 00:20:00,59.3,57.0,29.80,SW,228,0.0,25.0,92,0.00,,,0.00,Wunderground v.1.15,2013-06-03 07:20:00,
2013-06-03 00:26:00,59.2,56.6,29.80,SW,236,1.0,25.0,91,0.00,,,0.00,Wunderground v.1.15,2013-06-03 07:26:00,
2013-06-03 00:32:00,59.2,56.9,29.80,SW,229,0.0,25.0,92,0.00,,,0.00,Wunderground v.1.15,2013-06-03 07:32:00,
2013-06-03 00:37:00,59.2,56.9,29.80,SW,222,0.0,25.0,92,0.00,,,0.00,Wunderground v.1.15,2013-06-03 07:37:00,
2013-06-03 00:43:00,59.1,56.8,29.80,SSW,205,0.0,25.0,92,0.00,,,0.00,Wunderground v.1.15,2013-06-03 07:43:00,
2013-06-03 00:49:00,59.1,56.8,29.80,SW,214,0.0,25.0,92,0.00,,,0.00,Wunderground v.1.15,2013-06-03 07:49:00,
2013-06-03 00:55:00,59.1,56.8,29.80,SW,214,0.0,25.0,92,0.00,,,0.00,Wunderground v.1.15,2013-06-03 07:55:00,
2013-06-03 01:01:00,59.2,56.9,29.80,SW,214,0.0,25.0,92,0.00,,,0.00,Wunderground v.1.15,2013-06-03 08:01:00,
2013-06-03 01:06:00,59.2,56.9,29.80,SW,214,0.0,25.0,92,0.00,,,0.00,Wunderground v.1.15,2013-06-03 08:06:00,
2013-06-03 01:12:00,59.2,56.9,29.80,SW,214,0.0,25.0,92,0.00,,,0.00,Wunderground v.1.15,2013-06-03 08:12:00,
2013-06-03 01:18:00,59.2,56.9,29.80,SW,214,0.0,25.0,92,0.00,,,0.00,Wunderground v.1.15,2013-06-03 08:18:00,
2013-06-03 01:24:00,59.2,56.9,29.80,South,189,0.0,25.0,92,0.00,,,0.00,Wunderground v.1.15,2013-06-03 08:24:00,
2013-06-03 01:31:00,59.2,56.9,29.80,South,183,1.0,25.0,92,0.00,,,0.00,Wunderground v.1.15,2013-06-03 08:31:00,
2013-06-03 01:36:00,59.1,56.8,29.80,SSW,195,1.0,25.0,92,0.00,,,0.00,Wunderground v.1.15,2013-06-03 08:36:00,
2013-06-03 01:42:00,59.2,56.9,29.80,SSW,195,0.0,25.0,92,0.00,,,0.00,Wunderground v.1.15,2013-06-03 08:42:00,
2013-06-03 01:47:00,59.2,56.9,29.79,SSW,201,0.0,25.0,92,0.00,,,0.00,Wunderground v.1.15,2013-06-03 08:47:00,
2013-06-03 01:53:00,59.2,56.9,29.79,SSW,201,0.0,25.0,92,0.00,,,0.00,Wunderground v.1.15,2013-06-03 08:53:00,
2013-06-03 01:58:00,59.3,57.0,29.79,SSW,201,0.0,25.0,92,0.00,,,0.00,Wunderground v.1.15,2013-06-03 08:58:00,
2013-06-03 02:04:00,59.3,57.0,29.79,SSW,201,0.0,25.0,92,0.00,,,0.00,Wunderground v.1.15,2013-06-03 09:04:00,
2013-06-03 02:10:00,59.4,57.1,29.79,SSW,201,0.0,25.0,92,0.00,,,0.00,Wunderground v.1.15,2013-06-03 09:10:00,
2013-06-03 02:16:00,59.4,57.1,29.79,SSW,197,0.0,25.0,92,0.00,,,0.00,Wunderground v.1.15,2013-06-03 09:16:00,
2013-06-03 02:22:00,59.4,56.8,29.79,South,191,0.0,25.0,91,0.00,,,0.00,Wunderground v.1.15,2013-06-03 09:22:00,
2013-06-03 02:27:00,59.3,56.7,29.79,South,191,0.0,25.0,91,0.00,,,0.00,Wunderground v.1.15,2013-06-03 09:27:00,
2013-06-03 02:33:00,59.4,56.8,29.79,SSE,159,1.0,25.0,91,0.00,,,0.00,Wunderground v.1.15,2013-06-03 09:33:00,
2013-06-03 02:39:00,59.4,56.8,29.79,SSE,165,1.0,25.0,91,0.00,,,0.00,Wunderground v.1.15,2013-06-03 09:39:00,
2013-06-03 02:45:00,59.4,56.8,29.79,SSE,165,1.0,25.0,91,0.00,,,0.00,Wunderground v.1.15,2013-06-03 09:45:00,
2013-06-03 02:50:00,59.4,56.8,29.79,SSE,165,0.0,25.0,91,0.00,,,0.00,Wunderground v.1.15,2013-06-03 09:50:00,
2013-06-03 02:56:00,59.4,56.8,29.79,SSE,165,0.0,25.0,91,0.00,,,0.00,Wunderground v.1.15,2013-06-03 09:56:00,
2013-06-03 03:02:00,59.5,56.9,29.78,SSE,165,0.0,25.0,91,0.00,,,0.00,Wunderground v.1.15,2013-06-03 10:02:00,
2013-06-03 03:08:00,59.5,56.9,29.79,SSE,165,0.0,25.0,91,0.00,,,0.00,Wunderground v.1.15,2013-06-03 10:08:00,
2013-06-03 03:14:00,59.6,57.0,29.79,SSE,165,0.0,25.0,91,0.00,,,0.00,Wunderground v.1.15,2013-06-03 10:14:00,
2013-06-03 03:20:00,59.6,57.0,29.79,SSE,165,0.0,25.0,91,0.00,,,0.00,Wunderground v.1.15,2013-06-03 10:20:00,
2013-06-03 03:26:00,59.7,57.1,29.79,SSE,165,0.0,25.0,91,0.00,,,0.00,Wunderground v.1.15,2013-06-03 10:26:00,
2013-06-03 03:32:00,59.7,57.1,29.79,SSE,165,0.0,25.0,91,0.00,,,0.00,Wunderground v.1.15,2013-06-03 10:32:00,
2013-06-03 03:38:00,59.8,57.2,29.79,SSE,165,0.0,25.0,91,0.00,,,0.00,Wunderground v.1.15,2013-06-03 10:38:00,
2013-06-03 03:43:00,59.9,57.3,29.78,SSE,165,0.0,25.0,91,0.00,,,0.00,Wunderground v.1.15,2013-06-03 10:43:00,
2013-06-03 03:49:00,59.9,57.3,29.78,SSE,165,0.0,25.0,91,0.00,,,0.00,Wunderground v.1.15,2013-06-03 10:49:00,
2013-06-03 03:54:00,59.9,57.0,29.78,SSE,165,0.0,25.0,90,0.00,,,0.00,Wunderground v.1.15,2013-06-03 10:54:00,
2013-06-03 04:00:00,60.0,57.1,29.78,SSE,165,0.0,25.0,90,0.00,,,0.00,Wunderground v.1.15,2013-06-03 11:00:00,
2013-06-03 04:06:00,60.0,57.1,29.79,SSE,165,0.0,25.0,90,0.00,,,0.00,Wunderground v.1.15,2013-06-03 11:06:00,
2013-06-03 04:12:00,60.0,57.1,29.79,SSE,165,0.0,25.0,90,0.00,,,0.00,Wunderground v.1.15,2013-06-03 11:12:00,
2013-06-03 04:17:00,60.0,57.1,29.79,SSE,165,0.0,25.0,90,0.00,,,0.00,Wunderground v.1.15,2013-06-03 11:17:00,
2013-06-03 04:23:00,60.1,57.2,29.78,SSE,165,0.0,25.0,90,0.00,,,0.00,Wunderground v.1.15,2013-06-03 11:23:00,
2013-06-03 04:29:00,60.1,57.2,29.79,SSE,165,0.0,25.0,90,0.00,,,0.00,Wunderground v.1.15,2013-06-03 11:29:00,
2013-06-03 04:34:00,60.0,57.1,29.79,SSE,165,0.0,25.0,90,0.00,,,0.00,Wunderground v.1.15,2013-06-03 11:34:00,
2013-06-03 04:40:00,60.0,57.1,29.79,SSE,165,0.0,25.0,90,0.00,,,0.00,Wunderground v.1.15,2013-06-03 11:40:00,
2013-06-03 04:46:00,60.0,57.1,29.79,SSE,165,0.0,25.0,90,0.00,,,0.00,Wunderground v.1.15,2013-06-03 11:46:00,
2013-06-03 04:52:00,60.0,57.1,29.79,SSE,165,0.0,25.0,90,0.00,,,0.00,Wunderground v.1.15,2013-06-03 11:52:00,
2013-06-03 04:57:00,60.0,57.1,29.79,SSE,165,0.0,25.0,90,0.00,,,0.00,Wunderground v.1.15,2013-06-03 11:57:00,
2013-06-03 05:03:00,60.0,57.1,29.79,SSE,165,0.0,25.0,90,0.00,,,0.00,Wunderground v.1.15,2013-06-03 12:03:00,
2013-06-03 05:08:00,60.0,57.1,29.80,SSE,165,0.0,25.0,90,0.00,,,0.00,Wunderground v.1.15,2013-06-03 12:08:00,
2013-06-03 05:14:00,60.0,57.1,29.80,SSE,165,0.0,25.0,90,0.00,,,0.00,Wunderground v.1.15,2013-06-03 12:14:00,
2013-06-03 05:19:00,60.1,57.2,29.80,SSE,165,0.0,25.0,90,0.00,,,0.00,Wunderground v.1.15,2013-06-03 12:19:00,
2013-06-03 05:25:00,60.1,57.2,29.80,SSE,165,0.0,25.0,90,0.00,,,0.00,Wunderground v.1.15,2013-06-03 12:25:00,
2013-06-03 05:31:00,60.1,57.2,29.80,SSE,165,0.0,25.0,90,0.00,,,0.00,Wunderground v.1.15,2013-06-03 12:31:00,
2013-06-03 05:37:00,60.0,57.1,29.80,SSE,165,0.0,25.0,90,0.00,,,0.00,Wunderground v.1.15,2013-06-03 12:37:00,
2013-06-03 05:42:00,60.0,57.1,29.81,SSE,165,0.0,25.0,90,0.00,,,0.00,Wunderground v.1.15,2013-06-03 12:42:00,
2013-06-03 05:47:00,60.0,57.1,29.81,SSE,165,0.0,25.0,90,0.00,,,0.00,Wunderground v.1.15,2013-06-03 12:47:00,
2013-06-03 05:53:00,60.0,57.1,29.81,SSE,165,0.0,25.0,90,0.00,,,0.00,Wunderground v.1.15,2013-06-03 12:53:00,
2013-06-03 05:58:00,60.0,57.1,29.81,SSE,165,0.0,25.0,90,0.00,,,0.00,Wunderground v.1.15,2013-06-03 12:58:00,
2013-06-03 06:04:00,60.0,57.1,29.81,SSE,165,0.0,25.0,90,0.00,,,0.00,Wunderground v.1.15,2013-06-03 13:04:00,
2013-06-03 06:09:00,60.0,57.1,29.82,SSE,165,0.0,25.0,90,0.00,,,0.00,Wunderground v.1.15,2013-06-03 13:09:00,
2013-06-03 06:14:00,60.0,57.1,29.82,SSE,165,0.0,25.0,90,0.00,,,0.00,Wunderground v.1.15,2013-06-03 13:14:00,
2013-06-03 06:19:00,60.1,57.2,29.82,SSE,165,0.0,25.0,90,0.00,,,0.00,Wunderground v.1.15,2013-06-03 13:19:00,
2013-06-03 06:25:00,60.1,57.5,29.82,SSE,165,0.0,25.0,91,0.00,,,0.00,Wunderground v.1.15,2013-06-03 13:25:00,
2013-06-03 06:30:00,60.2,57.3,29.82,SSE,165,0.0,25.0,90,0.00,,,0.00,Wunderground v.1.15,2013-06-03 13:30:00,
2013-06-03 06:35:00,60.3,57.4,29.82,SSE,165,0.0,25.0,90,0.00,,,0.00,Wunderground v.1.15,2013-06-03 13:35:00,
2013-06-03 06:40:00,60.4,57.5,29.82,SSE,165,0.0,25.0,90,0.00,,,0.00,Wunderground v.1.15,2013-06-03 13:40:00,
2013-06-03 06:46:00,60.4,57.5,29.82,SSE,165,0.0,25.0,90,0.00,,,0.00,Wunderground v.1.15,2013-06-03 13:46:00,
2013-06-03 06:51:00,60.5,57.6,29.83,SSE,165,0.0,25.0,90,0.00,,,0.00,Wunderground v.1.15,2013-06-03 13:51:00,
2013-06-03 06:56:00,60.6,57.7,29.83,SSE,165,0.0,25.0,90,0.00,,,0.00,Wunderground v.1.15,2013-06-03 13:56:00,
2013-06-03 07:02:00,60.6,57.3,29.83,SSE,165,0.0,25.0,89,0.00,,,0.00,Wunderground v.1.15,2013-06-03 14:02:00,
2013-06-03 07:07:00,60.7,57.4,29.83,SSE,165,0.0,25.0,89,0.00,,,0.00,Wunderground v.1.15,2013-06-03 14:07:00,
2013-06-03 07:12:00,60.8,57.5,29.83,SSW,192,0.0,25.0,89,0.00,,,0.00,Wunderground v.1.15,2013-06-03 14:12:00,
2013-06-03 07:18:00,60.9,57.3,29.83,SSW,192,0.0,25.0,88,0.00,,,0.00,Wunderground v.1.15,2013-06-03 14:18:00,
2013-06-03 07:23:00,61.0,57.7,29.84,SSW,192,0.0,25.0,89,0.00,,,0.00,Wunderground v.1.15,2013-06-03 14:23:00,
2013-06-03 07:28:00,61.1,57.5,29.84,SSW,192,0.0,25.0,88,0.00,,,0.00,Wunderground v.1.15,2013-06-03 14:28:00,
2013-06-03 07:33:00,61.2,57.6,29.84,SSW,192,0.0,25.0,88,0.00,,,0.00,Wunderground v.1.15,2013-06-03 14:33:00,
2013-06-03 07:39:00,61.3,57.7,29.84,SSW,192,0.0,25.0,88,0.00,,,0.00,Wunderground v.1.15,2013-06-03 14:39:00,
2013-06-03 07:45:00,61.4,57.5,29.84,SSW,206,0.0,25.0,87,0.00,,,0.00,Wunderground v.1.15,2013-06-03 14:45:00,
2013-06-03 07:51:00,61.6,57.7,29.84,SSW,206,0.0,25.0,87,0.00,,,0.00,Wunderground v.1.15,2013-06-03 14:51:00,
2013-06-03 07:56:00,61.7,57.8,29.84,SSW,206,0.0,25.0,87,0.00,,,0.00,Wunderground v.1.15,2013-06-03 14:56:00,
2013-06-03 08:01:00,61.9,58.0,29.84,SSW,206,0.0,25.0,87,0.00,,,0.00,Wunderground v.1.15,2013-06-03 15:01:00,
2013-06-03 08:07:00,62.0,57.8,29.85,SSW,206,0.0,25.0,86,0.00,,,0.00,Wunderground v.1.15,2013-06-03 15:07:00,
2013-06-03 08:13:00,62.1,57.9,29.85,SSW,206,0.0,25.0,86,0.00,,,0.00,Wunderground v.1.15,2013-06-03 15:13:00,
2013-06-03 08:19:00,62.3,58.1,29.85,SSW,206,0.0,25.0,86,0.00,,,0.00,Wunderground v.1.15,2013-06-03 15:19:00,
2013-06-03 08:25:00,62.6,58.0,29.85,SSW,206,0.0,25.0,85,0.00,,,0.00,Wunderground v.1.15,2013-06-03 15:25:00,
2013-06-03 08:31:00,62.8,58.2,29.85,SSW,206,0.0,25.0,85,0.00,,,0.00,Wunderground v.1.15,2013-06-03 15:31:00,
2013-06-03 08:36:00,63.0,58.1,29.85,SSW,206,0.0,25.0,84,0.00,,,0.00,Wunderground v.1.15,2013-06-03 15:36:00,
2013-06-03 08:41:00,63.2,57.9,29.85,SSW,206,0.0,25.0,83,0.00,,,0.00,Wunderground v.1.15,2013-06-03 15:41:00,
2013-06-03 08:47:00,63.5,58.2,29.86,SSW,206,0.0,25.0,83,0.00,,,0.00,Wunderground v.1.15,2013-06-03 15:47:00,
2013-06-03 08:52:00,63.7,57.8,29.86,SSW,208,0.0,25.0,81,0.00,,,0.00,Wunderground v.1.15,2013-06-03 15:52:00,
2013-06-03 08:58:00,64.0,57.4,29.86,ENE,68,0.0,25.0,79,0.00,,,0.00,Wunderground v.1.15,2013-06-03 15:58:00,
2013-06-03 09:03:00,64.3,57.6,29.86,NE,55,1.0,25.0,79,0.00,,,0.00,Wunderground v.1.15,2013-06-03 16:03:00,
2013-06-03 09:08:00,64.6,57.2,29.86,ENE,61,0.0,25.0,77,0.00,,,0.00,Wunderground v.1.15,2013-06-03 16:08:00,
2013-06-03 09:14:00,65.1,58.1,29.86,NE,43,0.0,25.0,78,0.00,,,0.00,Wunderground v.1.15,2013-06-03 16:14:00,
2013-06-03 09:19:00,65.4,57.3,29.86,NNE,17,1.0,25.0,75,0.00,,,0.00,Wunderground v.1.15,2013-06-03 16:19:00,
2013-06-03 09:24:00,65.6,57.5,29.86,ESE,113,1.0,25.0,75,0.00,,,0.00,Wunderground v.1.15,2013-06-03 16:24:00,
2013-06-03 09:29:00,65.7,57.2,29.86,ESE,110,1.0,25.0,74,0.00,,,0.00,Wunderground v.1.15,2013-06-03 16:29:00,
2013-06-03 09:34:00,65.9,57.4,29.86,SE,138,1.0,25.0,74,0.00,,,0.00,Wunderground v.1.15,2013-06-03 16:34:00,
2013-06-03 09:39:00,65.9,56.6,29.86,NE,55,1.0,25.0,72,0.00,,,0.00,Wunderground v.1.15,2013-06-03 16:39:00,
2013-06-03 09:44:00,66.2,56.9,29.86,NE,54,1.0,25.0,72,0.00,,,0.00,Wunderground v.1.15,2013-06-03 16:44:00,
2013-06-03 09:49:00,66.5,56.8,29.86,East,80,1.0,25.0,71,0.00,,,0.00,Wunderground v.1.15,2013-06-03 16:49:00,
2013-06-03 09:54:00,67.0,56.5,29.86,ESE,113,2.0,25.0,69,0.00,,,0.00,Wunderground v.1.15,2013-06-03 16:54:00,
2013-06-03 10:00:00,67.3,56.4,29.86,NW,322,1.0,25.0,68,0.00,,,0.00,Wunderground v.1.15,2013-06-03 17:00:00,
2013-06-03 10:05:00,67.8,56.9,29.86,NE,45,1.0,25.0,68,0.00,,,0.00,Wunderground v.1.15,2013-06-03 17:05:00,
2013-06-03 10:11:00,68.8,57.0,29.86,NNW,338,0.0,25.0,66,0.00,,,0.00,Wunderground v.1.15,2013-06-03 17:11:00,
2013-06-03 10:16:00,69.6,58.6,29.86,WSW,245,1.0,25.0,68,0.00,,,0.00,Wunderground v.1.15,2013-06-03 17:16:00,
2013-06-03 10:22:00,70.3,58.0,29.87,WNW,284,2.0,25.0,65,0.00,,,0.00,Wunderground v.1.15,2013-06-03 17:22:00,
2013-06-03 10:27:00,70.6,56.9,29.86,NNW,333,2.0,25.0,62,0.00,,,0.00,Wunderground v.1.15,2013-06-03 17:27:00,
2013-06-03 10:32:00,71.2,58.8,29.86,South,182,2.0,25.0,65,0.00,,,0.00,Wunderground v.1.15,2013-06-03 17:32:00,
2013-06-03 10:38:00,71.3,57.6,29.86,WSW,254,2.0,25.0,62,0.00,,,0.00,Wunderground v.1.15,2013-06-03 17:38:00,
2013-06-03 10:43:00,71.8,57.6,29.86,SSW,211,2.0,25.0,61,0.00,,,0.00,Wunderground v.1.15,2013-06-03 17:43:00,
2013-06-03 10:48:00,72.1,58.4,29.86,SSW,197,2.0,25.0,62,0.00,,,0.00,Wunderground v.1.15,2013-06-03 17:48:00,
2013-06-03 10:53:00,71.9,58.2,29.86,South,182,3.0,25.0,62,0.00,,,0.00,Wunderground v.1.15,2013-06-03 17:53:00,
2013-06-03 10:59:00,71.5,58.2,29.86,WSW,252,2.0,25.0,63,0.00,,,0.00,Wunderground v.1.15,2013-06-03 17:59:00,
2013-06-03 11:05:00,71.5,57.8,29.86,SSW,210,3.0,25.0,62,0.00,,,0.00,Wunderground v.1.15,2013-06-03 18:05:00,
2013-06-03 11:11:00,71.0,57.3,29.86,SSW,209,2.0,25.0,62,0.00,,,0.00,Wunderground v.1.15,2013-06-03 18:11:00,
2013-06-03 11:17:00,71.1,57.4,29.86,WSW,244,2.0,25.0,62,0.00,,,0.00,Wunderground v.1.15,2013-06-03 18:17:00,
2013-06-03 11:23:00,71.0,56.9,29.86,SE,130,3.0,25.0,61,0.00,,,0.00,Wunderground v.1.15,2013-06-03 18:23:00,
2013-06-03 11:28:00,70.7,57.0,29.86,SW,233,3.0,25.0,62,0.00,,,0.00,Wunderground v.1.15,2013-06-03 18:28:00,
2013-06-03 11:34:00,71.3,57.2,29.86,South,185,4.0,25.0,61,0.00,,,0.00,Wunderground v.1.15,2013-06-03 18:34:00,
2013-06-03 11:40:00,71.6,58.3,29.86,WNW,286,4.0,25.0,63,0.00,,,0.00,Wunderground v.1.15,2013-06-03 18:40:00,
2013-06-03 11:46:00,72.0,58.7,29.86,SW,228,4.0,25.0,63,0.00,,,0.00,Wunderground v.1.15,2013-06-03 18:46:00,
2013-06-03 11:52:00,72.5,59.2,29.85,SSW,196,4.0,25.0,63,0.00,,,0.00,Wunderground v.1.15,2013-06-03 18:52:00,
2013-06-03 11:58:00,72.6,59.3,29.85,WSW,247,4.0,25.0,63,0.00,,,0.00,Wunderground v.1.15,2013-06-03 18:58:00,
2013-06-03 12:03:00,72.8,59.0,29.85,SSW,211,5.0,25.0,62,0.00,,,0.00,Wunderground v.1.15,2013-06-03 19:03:00,
2013-06-03 12:08:00,73.2,58.9,29.85,SW,221,4.0,25.0,61,0.00,,,0.00,Wunderground v.1.15,2013-06-03 19:08:00,
2013-06-03 12:13:00,73.2,58.9,29.85,SSW,202,3.0,25.0,61,0.00,,,0.00,Wunderground v.1.15,2013-06-03 19:13:00,
2013-06-03 12:18:00,73.3,59.0,29.85,West,271,4.0,25.0,61,0.00,,,0.00,Wunderground v.1.15,2013-06-03 19:18:00,
2013-06-03 12:24:00,73.6,59.3,29.85,South,186,4.0,25.0,61,0.00,,,0.00,Wunderground v.1.15,2013-06-03 19:24:00,
2013-06-03 12:30:00,73.6,59.3,29.84,SW,226,4.0,4.0,61,0.00,,,0.00,Wunderground v.1.15,2013-06-03 19:30:00,
2013-06-03 12:35:00,74.1,58.4,29.84,West,265,4.0,25.0,58,0.00,,,0.00,Wunderground v.1.15,2013-06-03 19:35:00,
2013-06-03 12:40:00,74.2,59.4,29.84,SW,217,5.0,5.0,60,0.00,,,0.00,Wunderground v.1.15,2013-06-03 19:40:00,
2013-06-03 12:45:00,74.0,59.7,29.84,WSW,244,5.0,25.0,61,0.00,,,0.00,Wunderground v.1.15,2013-06-03 19:45:00,
2013-06-03 12:50:00,73.9,60.5,29.84,SW,228,4.0,4.0,63,0.00,,,0.00,Wunderground v.1.15,2013-06-03 19:50:00,
2013-06-03 12:56:00,73.6,58.4,29.84,SW,233,5.0,25.0,59,0.00,,,0.00,Wunderground v.1.15,2013-06-03 19:56:00,
2013-06-03 13:02:00,74.1,60.2,29.84,SSW,213,5.0,25.0,62,0.00,,,0.00,Wunderground v.1.15,2013-06-03 20:02:00,
2013-06-03 13:07:00,74.2,59.4,29.84,WSW,238,5.0,25.0,60,0.00,,,0.00,Wunderground v.1.15,2013-06-03 20:07:00,
2013-06-03 13:12:00,74.3,60.0,29.84,WSW,244,5.0,25.0,61,0.00,,,0.00,Wunderground v.1.15,2013-06-03 20:12:00,
2013-06-03 13:17:00,74.5,59.7,29.84,SSW,212,5.0,25.0,60,0.00,,,0.00,Wunderground v.1.15,2013-06-03 20:17:00,
2013-06-03 13:23:00,74.5,59.7,29.83,SW,219,6.0,25.0,60,0.00,,,0.00,Wunderground v.1.15,2013-06-03 20:23:00,
2013-06-03 13:29:00,74.4,59.1,29.83,SSE,168,5.0,25.0,59,0.00,,,0.00,Wunderground v.1.15,2013-06-03 20:29:00,
2013-06-03 13:34:00,74.4,60.1,29.84,SW,218,5.0,25.0,61,0.00,,,0.00,Wunderground v.1.15,2013-06-03 20:34:00,
2013-06-03 13:40:00,74.1,59.3,29.84,WSW,242,6.0,25.0,60,0.00,,,0.00,Wunderground v.1.15,2013-06-03 20:40:00,
2013-06-03 13:46:00,74.1,60.7,29.84,WSW,246,6.0,25.0,63,0.00,,,0.00,Wunderground v.1.15,2013-06-03 20:46:00,
2013-06-03 13:51:00,74.0,60.2,29.84,WSW,250,6.0,25.0,62,0.00,,,0.00,Wunderground v.1.15,2013-06-03 20:51:00,
2013-06-03 13:56:00,74.2,60.3,29.84,SW,219,6.0,25.0,62,0.00,,,0.00,Wunderground v.1.15,2013-06-03 20:56:00,
2013-06-03 14:01:00,74.2,59.9,29.83,SW,232,5.0,25.0,61,0.00,,,0.00,Wunderground v.1.15,2013-06-03 21:01:00,
2013-06-03 14:07:00,74.1,59.8,29.84,SSW,202,5.0,25.0,61,0.00,,,0.00,Wunderground v.1.15,2013-06-03 21:07:00,
2013-06-03 14:13:00,73.8,60.0,29.83,South,180,6.0,25.0,62,0.00,,,0.00,Wunderground v.1.15,2013-06-03 21:13:00,
2013-06-03 14:18:00,73.5,59.7,29.83,South,190,6.0,25.0,62,0.00,,,0.00,Wunderground v.1.15,2013-06-03 21:18:00,
2013-06-03 14:24:00,73.5,60.1,29.83,SSW,195,6.0,25.0,63,0.00,,,0.00,Wunderground v.1.15,2013-06-03 21:24:00,
2013-06-03 14:30:00,73.5,60.1,29.83,South,188,7.0,7.0,63,0.00,,,0.00,Wunderground v.1.15,2013-06-03 21:30:00,
2013-06-03 14:35:00,73.3,60.4,29.83,SSW,207,6.0,25.0,64,0.00,,,0.00,Wunderground v.1.15,2013-06-03 21:35:00,
2013-06-03 14:40:00,73.2,59.4,29.83,SSW,208,6.0,25.0,62,0.00,,,0.00,Wunderground v.1.15,2013-06-03 21:40:00,
2013-06-03 14:45:00,73.1,59.8,29.83,SSW,209,6.0,25.0,63,0.00,,,0.00,Wunderground v.1.15,2013-06-03 21:45:00,
2013-06-03 14:50:00,73.2,59.8,29.83,SW,221,6.0,6.0,63,0.00,,,0.00,Wunderground v.1.15,2013-06-03 21:50:00,
2013-06-03 14:56:00,73.0,59.2,29.83,South,186,6.0,25.0,62,0.00,,,0.00,Wunderground v.1.15,2013-06-03 21:56:00,
2013-06-03 15:01:00,72.7,59.4,29.83,South,182,7.0,25.0,63,0.00,,,0.00,Wunderground v.1.15,2013-06-03 22:01:00,
2013-06-03 15:07:00,72.3,59.0,29.83,WSW,249,7.0,25.0,63,0.00,,,0.00,Wunderground v.1.15,2013-06-03 22:07:00,
2013-06-03 15:12:00,72.6,59.3,29.83,WSW,254,7.0,25.0,63,0.00,,,0.00,Wunderground v.1.15,2013-06-03 22:12:00,
2013-06-03 15:18:00,72.2,59.3,29.83,SW,223,7.0,25.0,64,0.00,,,0.00,Wunderground v.1.15,2013-06-03 22:18:00,
2013-06-03 15:23:00,72.1,58.8,29.83,SW,221,7.0,25.0,63,0.00,,,0.00,Wunderground v.1.15,2013-06-03 22:23:00,
2013-06-03 15:29:00,72.0,59.6,29.83,WSW,249,7.0,25.0,65,0.00,,,0.00,Wunderground v.1.15,2013-06-03 22:29:00,
2013-06-03 15:34:00,72.0,59.6,29.83,SSW,206,7.0,25.0,65,0.00,,,0.00,Wunderground v.1.15,2013-06-03 22:34:00,
2013-06-03 15:40:00,72.0,59.6,29.82,SW,236,5.0,25.0,65,0.00,,,0.00,Wunderground v.1.15,2013-06-03 22:40:00,
2013-06-03 15:46:00,72.2,59.3,29.83,WSW,258,5.0,25.0,64,0.00,,,0.00,Wunderground v.1.15,2013-06-03 22:46:00,
2013-06-03 15:51:00,71.8,58.5,29.82,West,265,7.0,25.0,63,0.00,,,0.00,Wunderground v.1.15,2013-06-03 22:51:00,
2013-06-03 15:57:00,71.7,59.3,29.82,SSW,209,8.0,25.0,65,0.00,,,0.00,Wunderground v.1.15,2013-06-03 22:57:00,
2013-06-03 16:03:00,72.1,59.2,29.82,SW,228,6.0,25.0,64,0.00,,,0.00,Wunderground v.1.15,2013-06-03 23:03:00,
2013-06-03 16:09:00,71.9,59.5,29.82,SW,218,6.0,25.0,65,0.00,,,0.00,Wunderground v.1.15,2013-06-03 23:09:00,
2013-06-03 16:15:00,72.2,59.3,29.82,SW,215,6.0,25.0,64,0.00,,,0.00,Wunderground v.1.15,2013-06-03 23:15:00,
2013-06-03 16:21:00,72.3,59.0,29.82,SW,225,5.0,25.0,63,0.00,,,0.00,Wunderground v.1.15,2013-06-03 23:21:00,
2013-06-03 16:26:00,72.4,59.5,29.82,WSW,239,5.0,25.0,64,0.00,,,0.00,Wunderground v.1.15,2013-06-03 23:26:00,
2013-06-03 16:32:00,72.6,59.3,29.82,WSW,237,5.0,25.0,63,0.00,,,0.00,Wunderground v.1.15,2013-06-03 23:32:00,
2013-06-03 16:37:00,72.6,58.8,29.82,WSW,257,5.0,25.0,62,0.00,,,0.00,Wunderground v.1.15,2013-06-03 23:37:00,
2013-06-03 16:42:00,72.5,58.7,29.82,SW,223,6.0,25.0,62,0.00,,,0.00,Wunderground v.1.15,2013-06-03 23:42:00,
2013-06-03 16:48:00,71.9,58.6,29.82,West,272,5.0,25.0,63,0.00,,,0.00,Wunderground v.1.15,2013-06-03 23:48:00,
2013-06-03 16:54:00,71.5,58.7,29.81,SW,229,5.0,25.0,64,0.00,,,0.00,Wunderground v.1.15,2013-06-03 23:54:00,
2013-06-03 16:59:00,71.4,58.6,29.81,SSW,209,5.0,25.0,64,0.00,,,0.00,Wunderground v.1.15,2013-06-03 23:59:00,
2013-06-03 17:05:00,71.2,58.8,29.81,SW,228,5.0,25.0,65,0.00,,,0.00,Wunderground v.1.15,2013-06-04 00:05:00,
2013-06-03 17:10:00,71.1,58.3,29.82,South,186,5.0,25.0,64,0.00,,,0.00,Wunderground v.1.15,2013-06-04 00:10:00,
2013-06-03 17:16:00,71.2,58.4,29.82,SW,227,5.0,25.0,64,0.00,,,0.00,Wunderground v.1.15,2013-06-04 00:16:00,
2013-06-03 17:22:00,71.0,57.8,29.81,West,278,5.0,25.0,63,0.00,,,0.00,Wunderground v.1.15,2013-06-04 00:22:00,
2013-06-03 17:28:00,70.7,58.4,29.81,South,175,5.0,25.0,65,0.00,,,0.00,Wunderground v.1.15,2013-06-04 00:28:00,
2013-06-03 17:34:00,70.8,58.0,29.81,SSW,192,4.0,25.0,64,0.00,,,0.00,Wunderground v.1.15,2013-06-04 00:34:00,
2013-06-03 17:39:00,70.5,58.2,29.81,WSW,252,5.0,25.0,65,0.00,,,0.00,Wunderground v.1.15,2013-06-04 00:39:00,
2013-06-03 17:46:00,70.7,57.9,29.81,SW,221,4.0,25.0,64,0.00,,,0.00,Wunderground v.1.15,2013-06-04 00:46:00,
2013-06-03 17:52:00,70.2,57.4,29.81,WSW,242,6.0,25.0,64,0.00,,,0.00,Wunderground v.1.15,2013-06-04 00:52:00,
2013-06-03 17:57:00,69.8,57.5,29.81,SSW,213,6.0,25.0,65,0.00,,,0.00,Wunderground v.1.15,2013-06-04 00:57:00,
2013-06-03 18:02:00,69.3,57.9,29.81,SW,225,6.0,25.0,67,0.00,,,0.00,Wunderground v.1.15,2013-06-04 01:02:00,
2013-06-03 18:08:00,68.8,57.0,29.81,WSW,256,6.0,25.0,66,0.00,,,0.00,Wunderground v.1.15,2013-06-04 01:08:00,
2013-06-03 18:14:00,68.3,57.3,29.81,WSW,252,6.0,25.0,68,0.00,,,0.00,Wunderground v.1.15,2013-06-04 01:14:00,
2013-06-03 18:20:00,67.8,56.9,29.81,WSW,248,6.0,6.0,68,0.00,,,0.00,Wunderground v.1.15,2013-06-04 01:20:00,
2013-06-03 18:26:00,67.5,57.0,29.81,WSW,240,7.0,25.0,69,0.00,,,0.00,Wunderground v.1.15,2013-06-04 01:26:00,
2013-06-03 18:32:00,67.2,56.7,29.81,WSW,257,8.0,25.0,69,0.00,,,0.00,Wunderground v.1.15,2013-06-04 01:32:00,
2013-06-03 18:38:00,66.8,56.7,29.82,SW,232,7.0,25.0,70,0.00,,,0.00,Wunderground v.1.15,2013-06-04 01:38:00,
2013-06-03 18:44:00,66.5,56.8,29.82,WSW,250,6.0,25.0,71,0.00,,,0.00,Wunderground v.1.15,2013-06-04 01:44:00,
2013-06-03 18:50:00,66.2,56.9,29.82,SW,222,7.0,7.0,72,0.00,,,0.00,Wunderground v.1.15,2013-06-04 01:50:00,
2013-06-03 18:56:00,65.9,56.6,29.82,SW,229,7.0,25.0,72,0.00,,,0.00,Wunderground v.1.15,2013-06-04 01:56:00,
2013-06-03 19:01:00,65.7,56.8,29.82,SW,231,6.0,25.0,73,0.00,,,0.00,Wunderground v.1.15,2013-06-04 02:01:00,
2013-06-03 19:06:00,65.5,56.6,29.83,WSW,250,4.0,25.0,73,0.00,,,0.00,Wunderground v.1.15,2013-06-04 02:06:00,
2013-06-03 19:12:00,65.2,56.7,29.83,WSW,243,5.0,25.0,74,0.00,,,0.00,Wunderground v.1.15,2013-06-04 02:12:00,
2013-06-03 19:18:00,64.9,56.0,29.83,WSW,238,6.0,25.0,73,0.00,,,0.00,Wunderground v.1.15,2013-06-04 02:18:00,
2013-06-03 19:24:00,64.5,56.0,29.83,SW,220,5.0,25.0,74,0.00,,,0.00,Wunderground v.1.15,2013-06-04 02:24:00,
2013-06-03 19:29:00,64.1,56.0,29.83,SW,232,4.0,25.0,75,0.00,,,0.00,Wunderground v.1.15,2013-06-04 02:29:00,
2013-06-03 19:35:00,63.5,55.8,29.83,WSW,257,5.0,25.0,76,0.00,,,0.00,Wunderground v.1.15,2013-06-04 02:35:00,
2013-06-03 19:40:00,63.1,55.8,29.83,West,260,6.0,6.0,77,0.00,,,0.00,Wunderground v.1.15,2013-06-04 02:40:00,
2013-06-03 19:46:00,62.6,55.6,29.84,WSW,250,5.0,25.0,78,0.00,,,0.00,Wunderground v.1.15,2013-06-04 02:46:00,
2013-06-03 19:52:00,62.2,55.3,29.84,WSW,240,6.0,25.0,78,0.00,,,0.00,Wunderground v.1.15,2013-06-04 02:52:00,
2013-06-03 19:58:00,61.9,55.3,29.84,WSW,256,6.0,25.0,79,0.00,,,0.00,Wunderground v.1.15,2013-06-04 02:58:00,
2013-06-03 20:03:00,61.6,55.4,29.84,West,262,5.0,25.0,80,0.00,,,0.00,Wunderground v.1.15,2013-06-04 03:03:00,
2013-06-03 20:08:00,61.4,55.5,29.84,WSW,245,5.0,25.0,81,0.00,,,0.00,Wunderground v.1.15,2013-06-04 03:08:00,
2013-06-03 20:14:00,61.0,55.1,29.84,SW,232,6.0,25.0,81,0.00,,,0.00,Wunderground v.1.15,2013-06-04 03:14:00,
2013-06-03 20:20:00,60.8,54.9,29.84,West,262,6.0,25.0,81,0.00,,,0.00,Wunderground v.1.15,2013-06-04 03:20:00,
2013-06-03 20:26:00,60.6,55.1,29.85,SW,229,5.0,25.0,82,0.00,,,0.00,Wunderground v.1.15,2013-06-04 03:26:00,
2013-06-03 20:31:00,60.4,55.2,29.85,WSW,238,6.0,8.0,83,0.00,,,0.00,Wunderground v.1.15,2013-06-04 03:31:00,
2013-06-03 20:36:00,60.3,55.1,29.85,WSW,248,6.0,25.0,83,0.00,,,0.00,Wunderground v.1.15,2013-06-04 03:36:00,
2013-06-03 20:42:00,60.1,55.2,29.85,SW,222,5.0,25.0,84,0.00,,,0.00,Wunderground v.1.15,2013-06-04 03:42:00,
2013-06-03 20:48:00,59.9,55.4,29.85,WSW,258,4.0,25.0,85,0.00,,,0.00,Wunderground v.1.15,2013-06-04 03:48:00,
2013-06-03 20:53:00,59.8,55.3,29.86,WSW,256,4.0,25.0,85,0.00,,,0.00,Wunderground v.1.15,2013-06-04 03:53:00,
2013-06-03 20:58:00,59.7,55.2,29.86,WSW,250,3.0,25.0,85,0.00,,,0.00,Wunderground v.1.15,2013-06-04 03:58:00,
2013-06-03 21:01:00,59.6,55.4,29.86,WSW,251,3.0,25.0,86,0.00,,,0.00,Wunderground v.1.15,2013-06-04 04:01:00,
2013-06-03 21:02:00,59.6,55.4,29.86,WSW,251,2.0,25.0,86,0.00,,,0.00,Wunderground v.1.15,2013-06-04 04:02:00,
2013-06-03 21:03:00,59.5,55.3,29.86,WSW,251,2.0,25.0,86,0.00,,,0.00,Wunderground v.1.15,2013-06-04 04:03:00,
2013-06-03 21:05:00,59.5,55.3,29.86,WSW,251,2.0,25.0,86,0.00,,,0.00,Wunderground v.1.15,2013-06-04 04:05:00,
2013-06-03 21:09:00,59.4,55.2,29.86,WSW,251,1.0,25.0,86,0.00,,,0.00,Wunderground v.1.15,2013-06-04 04:09:00,
2013-06-03 21:14:00,59.2,55.0,29.86,West,269,0.0,25.0,86,0.00,,,0.00,Wunderground v.1.15,2013-06-04 04:14:00,
2013-06-03 21:20:00,59.1,54.9,29.86,West,280,0.0,25.0,86,0.00,,,0.00,Wunderground v.1.15,2013-06-04 04:20:00,
2013-06-03 21:25:00,59.0,54.8,29.87,West,276,0.0,25.0,86,0.00,,,0.00,Wunderground v.1.15,2013-06-04 04:25:00,
2013-06-03 21:31:00,58.8,54.9,29.87,West,276,0.0,25.0,87,0.00,,,0.00,Wunderground v.1.15,2013-06-04 04:31:00,
2013-06-03 21:36:00,58.6,54.7,29.87,West,276,0.0,25.0,87,0.00,,,0.00,Wunderground v.1.15,2013-06-04 04:36:00,
2013-06-03 21:42:00,58.4,54.5,29.87,West,276,0.0,25.0,87,0.00,,,0.00,Wunderground v.1.15,2013-06-04 04:42:00,
2013-06-03 21:47:00,58.3,54.4,29.87,West,277,0.0,25.0,87,0.00,,,0.00,Wunderground v.1.15,2013-06-04 04:47:00,
2013-06-03 21:53:00,58.1,54.6,29.87,West,277,0.0,25.0,88,0.00,,,0.00,Wunderground v.1.15,2013-06-04 04:53:00,
2013-06-03 21:59:00,57.9,54.4,29.87,West,277,0.0,25.0,88,0.00,,,0.00,Wunderground v.1.15,2013-06-04 04:59:00,
2013-06-03 22:04:00,57.7,54.2,29.87,West,277,0.0,25.0,88,0.00,,,0.00,Wunderground v.1.15,2013-06-04 05:04:00,
2013-06-03 22:09:00,57.5,54.0,29.87,West,277,0.0,25.0,88,0.00,,,0.00,Wunderground v.1.15,2013-06-04 05:09:00,
2013-06-03 22:14:00,57.3,53.8,29.87,West,277,0.0,25.0,88,0.00,,,0.00,Wunderground v.1.15,2013-06-04 05:14:00,
2013-06-03 22:19:00,57.1,53.6,29.87,West,277,0.0,25.0,88,0.00,,,0.00,Wunderground v.1.15,2013-06-04 05:19:00,
2013-06-03 22:25:00,56.9,53.7,29.87,West,277,0.0,25.0,89,0.00,,,0.00,Wunderground v.1.15,2013-06-04 05:25:00,
2013-06-03 22:31:00,56.7,53.5,29.88,West,277,0.0,25.0,89,0.00,,,0.00,Wunderground v.1.15,2013-06-04 05:31:00,
2013-06-03 22:37:00,56.5,53.3,29.88,West,277,0.0,25.0,89,0.00,,,0.00,Wunderground v.1.15,2013-06-04 05:37:00,
2013-06-03 22:42:00,56.3,53.1,29.88,West,277,0.0,25.0,89,0.00,,,0.00,Wunderground v.1.15,2013-06-04 05:42:00,
2013-06-03 22:47:00,56.1,52.9,29.88,West,277,0.0,25.0,89,0.00,,,0.00,Wunderground v.1.15,2013-06-04 05:47:00,
2013-06-03 22:52:00,55.8,52.6,29.88,West,277,0.0,25.0,89,0.00,,,0.00,Wunderground v.1.15,2013-06-04 05:52:00,
2013-06-03 22:57:00,55.6,52.4,29.88,West,277,0.0,25.0,89,0.00,,,0.00,Wunderground v.1.15,2013-06-04 05:57:00,
2013-06-03 23:03:00,55.4,52.5,29.89,West,277,0.0,25.0,90,0.00,,,0.00,Wunderground v.1.15,2013-06-04 06:03:00,
2013-06-03 23:09:00,55.2,52.3,29.89,West,277,0.0,25.0,90,0.00,,,0.00,Wunderground v.1.15,2013-06-04 06:09:00,
2013-06-03 23:14:00,55.2,52.3,29.89,West,271,0.0,25.0,90,0.00,,,0.00,Wunderground v.1.15,2013-06-04 06:14:00,
2013-06-03 23:20:00,55.2,52.6,29.89,West,273,0.0,25.0,91,0.00,,,0.00,Wunderground v.1.15,2013-06-04 06:20:00,
2013-06-03 23:25:00,55.3,53.0,29.89,West,273,0.0,25.0,92,0.00,,,0.00,Wunderground v.1.15,2013-06-04 06:25:00,
2013-06-03 23:31:00,55.6,53.3,29.89,West,269,0.0,25.0,92,0.00,,,0.00,Wunderground v.1.15,2013-06-04 06:31:00,
2013-06-03 23:36:00,55.8,53.8,29.89,West,279,0.0,25.0,93,0.00,,,0.00,Wunderground v.1.15,2013-06-04 06:36:00,
2013-06-03 23:41:00,56.0,54.0,29.89,West,281,0.0,25.0,93,0.00,,,0.00,Wunderground v.1.15,2013-06-04 06:41:00,
2013-06-03 23:47:00,56.3,54.3,29.89,West,281,0.0,25.0,93,0.00,,,0.00,Wunderground v.1.15,2013-06-04 06:47:00,
2013-06-03 23:53:00,56.5,54.5,29.89,West,281,0.0,25.0,93,0.00,,,0.00,Wunderground v.1.15,2013-06-04 06:53:00,
2013-06-03 23:59:00,56.7,54.7,29.89,West,281,0.0,25.0,93,0.00,,,0.00,Wunderground v.1.15,2013-06-04 06:59:00,